[[{"header":{"parameterUnit":"m.s-1","parameterCategory":1,"la1":30.2991,"la2":30.254,"lo1":-89.0895,"lo2":-89.0444,"dy":0.0017,"dx":0.0017,"nx":28,"ny":28,"refTime":"2025-03-09T03:00:00:Z","depth":0,"parameterNumber":2,"parameterNumberName":"U-component_of_WINDS"},"data":[0,0,0,0,0,0,0,0,0,0,0,0,0,0,0,0,0,0,0,0,0,0,0,0,0,0,0,0,0,0,0,0,0,0,0,0,0,0,0,0,0,0,0,0,0,0,0,0,0,0,0,0,0,0,0,0,0,0,2.8133,2.8134,0,2.8172,2.8172,2.8173,2.8121,2.8119,2.8117,2.8115,2.8154,2.8157,2.8159,0,0,0,0,0,0,0,0,0,0,0,0,0,2.8015,2.8017,2.8133,2.8134,2.8134,2.8172,2.8172,2.8173,2.8121,2.8119,2.8117,2.8114,2.8153,2.8156,2.816,0,0,0,0,0,0,0,0,0,0,0,0,0,2.8061,2.8018,2.8133,2.8113,2.8111,2.8172,2.8172,2.8173,2.8122,2.8119,2.8116,2.8113,2.8152,2.8156,2.816,2.8242,0,0,2.8173,2.8175,0,0,0,0,0,0,0,0,2.8059,2.8066,2.8115,2.8114,2.8113,2.8139,2.8145,2.8196,2.8122,2.8118,2.8115,2.8112,2.8151,2.8155,2.8168,2.8244,2.8245,2.8173,2.8176,2.8177,2.8179,0,0,0,0,0,0,0,2.8056,2.8064,2.8148,2.8116,2.8115,2.8102,2.8106,2.8154,2.815,2.8118,2.8114,2.812,2.815,2.8165,2.8169,2.8246,2.8173,2.8177,2.8179,2.8181,2.8393,2.8396,0,0,0,0,0,0,2.8055,2.8061,2.8147,2.815,2.8078,2.8106,2.811,2.8133,2.8149,2.8149,2.8122,2.8117,2.8159,2.8164,2.817,2.8268,2.8177,2.8181,2.8184,2.8389,2.8393,2.8397,0,0,0,0,0,0,2.8052,2.8063,2.8146,2.8105,2.8114,2.8111,2.8138,2.8135,2.815,2.8152,2.8151,2.8138,2.8157,2.8164,2.8225,2.8269,2.8183,2.8187,2.8386,2.8391,2.8395,2.8465,0,0,0,0,0,0,2.8049,2.8062,2.8093,2.8106,2.8116,2.82,2.814,2.8138,2.8158,2.8151,2.8167,2.8166,2.8155,2.8219,2.8229,2.8273,2.819,2.8382,2.8388,2.8393,2.8459,2.8471,2.8482,0,0,0,0,0,2.8045,2.811,2.8095,2.8105,2.8155,2.8202,2.8209,2.8195,2.8161,2.8192,2.8194,2.8166,2.8263,2.8226,2.8237,2.8283,2.8379,2.8386,2.8393,2.8453,2.8469,2.8482,0,0,0,0,0,0,2.8102,2.8111,2.8094,2.8166,2.8184,2.8193,2.8232,2.8211,2.8239,2.8232,2.8213,2.8217,2.8283,2.8288,2.8247,2.8364,2.8315,2.8325,2.8357,2.8372,2.8384,2.8381,2.8194,0,0,0,0,0,2.8123,2.8161,2.8167,2.8229,2.8239,2.8235,2.8255,2.8243,2.826,2.8268,2.8273,2.8292,2.8327,2.835,2.8381,2.8459,2.8463,2.8496,2.8508,2.8518,2.8526,2.857,2.8586,2.842,2.842,2.842,0,0,2.8166,2.8176,2.8201,2.8241,2.8254,2.8294,2.8241,2.8285,2.8315,2.8274,2.8332,2.8338,2.8357,2.8427,2.8458,2.8434,2.8573,2.8527,2.8535,2.8538,2.8579,2.8595,2.8609,2.8425,2.8424,2.8423,0,0,2.8266,2.8277,2.8331,2.8345,2.8365,2.8362,2.8375,2.8389,2.8391,2.845,2.8421,2.8456,2.8515,2.8531,2.8547,2.8656,2.8631,2.8666,2.8728,2.8771,2.8784,2.8796,2.8836,2.885,2.8675,2.8675,2.8675,0,2.8317,2.8376,2.8361,2.8408,2.8427,2.8394,2.8449,2.8463,2.8493,2.8507,2.848,2.8556,2.8566,2.864,2.8667,2.8681,2.8696,2.8664,2.8783,2.8795,2.8805,2.8843,2.8858,2.8679,2.8679,2.8678,2.8678,0,2.8439,2.8481,2.8522,2.8553,2.8577,2.8627,2.8621,2.8647,2.8633,2.8633,2.8694,2.8706,2.8741,2.8757,2.8744,2.8831,2.8816,2.8786,2.8737,2.8826,2.8861,2.8876,2.8685,2.8684,2.8683,2.8682,0,0,2.8574,2.8597,2.8613,2.8627,2.8649,2.8681,2.8731,2.8766,2.8789,2.8811,2.8853,2.8906,2.888,2.8898,2.8886,2.8924,2.9012,2.889,2.889,2.8913,2.911,2.9132,2.9149,2.8996,2.8998,2.9001,2.9108,0,2.8674,2.8761,2.875,2.8834,2.8873,2.8843,2.8887,2.8905,2.8907,2.8941,2.8943,2.8981,2.8943,2.8954,2.899,2.8993,2.9051,2.8985,2.9036,2.9037,2.9032,2.9167,2.9191,2.9292,2.9122,2.9124,2.9126,0,2.8803,2.8831,2.8919,2.8936,2.8953,2.8992,2.9024,2.9057,2.9078,2.9077,2.9098,2.9081,2.9132,2.9083,2.9154,2.911,2.913,2.9135,2.9138,2.9143,2.9087,2.9176,2.9323,2.9339,2.9148,2.9146,2.9144,0,2.8894,2.8954,2.9015,2.9028,2.9049,2.9078,2.9089,2.9107,2.9129,2.9157,2.9172,2.9206,2.9224,2.9251,2.9244,2.9208,2.9317,2.9266,2.9318,2.9319,2.9342,2.9341,2.9496,2.9355,2.9355,2.9354,2.9354,0,2.9008,2.9063,2.9057,2.9094,2.9156,2.9143,2.9204,2.9211,2.9228,2.9266,2.9242,2.9279,2.9267,2.9304,2.9298,2.9359,2.9367,2.9368,2.9366,2.9371,2.9371,2.9384,2.9377,2.9358,2.9357,2.9357,2.9356,0,2.912,2.9117,2.9182,2.9198,2.9203,2.9248,2.9262,2.9298,2.9298,2.9348,2.9359,2.936,2.9402,2.9398,2.9445,2.9441,2.9517,2.9506,2.951,2.9508,2.9561,2.9556,2.973,2.9752,2.9596,2.9597,2.9599,0,2.9193,2.9235,2.9256,2.928,2.9293,2.9333,2.9356,2.9346,2.9371,2.94,2.9433,2.9473,2.9504,2.9573,2.9579,2.9615,2.9605,2.9664,2.961,2.9614,2.9607,2.9605,2.961,2.9674,2.9676,2.9677,2.9678,0,2.9323,2.932,2.9355,2.939,2.9419,2.9446,2.9471,2.9492,2.9485,2.9515,2.9558,2.9583,2.9632,2.9673,2.9708,2.9718,2.9698,2.9695,2.9709,2.9715,2.9716,2.9717,2.954,2.9691,2.969,2.9689,2.9688,2.9688,2.9418,2.9455,2.9476,2.9516,2.9534,2.9558,2.9593,2.96,2.9636,2.9675,2.9667,2.9716,2.9738,2.9783,2.9798,2.9837,2.9815,2.9836,2.9841,2.9846,2.9853,2.971,2.9843,2.9842,2.9842,2.9842,2.9841,0,2.9548,2.9561,2.9598,2.9634,2.9666,2.9645,2.9671,2.97,2.9744,2.9766,2.9798,2.9849,2.9889,2.9899,2.9937,2.9967,2.9959,2.9977,2.9975,2.9979,2.9869,2.9853,2.9984,2.9984,2.9983,2.9983,2.9983,2.9983,2.9619,2.9681,2.9682,2.9753,2.9765,2.9814,2.9831,2.9854,2.9872,2.993,2.9963,2.997,2.9987,3.0028,3.0064,3.0066,3.0081,3.0104,3.0103,3.0,2.9986,2.9972,2.9958,3.0108,3.0108,3.0209,3.021,3.0211]},{"header":{"parameterUnit":"m.s-1","parameterCategory":1,"la1":30.2991,"la2":30.254,"lo1":-89.0895,"lo2":-89.0444,"dy":0.0017,"dx":0.0017,"nx":28,"ny":28,"refTime":"2025-03-09T03:00:00:Z","depth":0,"parameterNumber":3,"parameterNumberName":"V-component_of_WINDS"},"data":[0,0,0,0,0,0,0,0,0,0,0,0,0,0,0,0,0,0,0,0,0,0,0,0,0,0,0,0,0,0,0,0,0,0,0,0,0,0,0,0,0,0,0,0,0,0,0,0,0,0,0,0,0,0,0,0,0,0,-3.9237,-3.9238,0,-3.9363,-3.9364,-3.9366,-3.9374,-3.9372,-3.9371,-3.937,-3.9496,-3.9501,-3.9506,0,0,0,0,0,0,0,0,0,0,0,0,0,-3.9001,-3.9005,-3.9236,-3.9238,-3.924,-3.9363,-3.9364,-3.9366,-3.9374,-3.9372,-3.9371,-3.9369,-3.9495,-3.95,-3.9506,0,0,0,0,0,0,0,0,0,0,0,0,0,-3.9112,-3.9006,-3.9236,-3.9258,-3.9262,-3.9362,-3.9365,-3.9367,-3.9374,-3.9372,-3.937,-3.9368,-3.9493,-3.95,-3.9507,-3.9593,0,0,-3.9528,-3.9531,0,0,0,0,0,0,0,0,-3.9106,-3.9121,-3.9254,-3.9257,-3.9261,-3.935,-3.9328,-3.9442,-3.9375,-3.9332,-3.937,-3.9367,-3.9449,-3.946,-3.9488,-3.9599,-3.9604,-3.9529,-3.9533,-3.9536,-3.9538,0,0,0,0,0,0,0,-3.9098,-3.9116,-3.9286,-3.9255,-3.926,-3.9262,-3.9275,-3.935,-3.9401,-3.9335,-3.9336,-3.9351,-3.9451,-3.9481,-3.9491,-3.9606,-3.9529,-3.9535,-3.9539,-3.9542,-3.9796,-3.9798,0,0,0,0,0,0,-3.9087,-3.9109,-3.9282,-3.929,-3.9177,-3.9268,-3.9283,-3.9324,-3.94,-3.941,-3.9353,-3.9351,-3.947,-3.9483,-3.9496,-3.9603,-3.9536,-3.9543,-3.9547,-3.9793,-3.9796,-3.9799,0,0,0,0,0,0,-3.9081,-3.9102,-3.9277,-3.92,-3.9223,-3.9274,-3.932,-3.9327,-3.9358,-3.9413,-3.9422,-3.9375,-3.9469,-3.9486,-3.9569,-3.9607,-3.9546,-3.9552,-3.979,-3.9794,-3.9797,-3.9817,0,0,0,0,0,0,-3.9075,-3.91,-3.9134,-3.9201,-3.9227,-3.9349,-3.9322,-3.9331,-3.937,-3.9369,-3.9436,-3.9445,-3.9469,-3.9559,-3.9576,-3.9616,-3.9558,-3.9787,-3.9792,-3.9796,-3.9813,-3.9821,-3.9827,0,0,0,0,0,-3.9066,-3.9133,-3.9135,-3.9156,-3.927,-3.9351,-3.9366,-3.9393,-3.9373,-3.9407,-3.9443,-3.9443,-3.96,-3.9567,-3.9587,-3.9629,-3.9785,-3.979,-3.9796,-3.981,-3.9819,-3.9827,0,0,0,0,0,0,-3.9067,-3.9142,-3.9145,-3.9236,-3.9288,-3.9353,-3.9396,-3.9402,-3.9459,-3.9455,-3.9485,-3.95,-3.9583,-3.9614,-3.9576,-3.9717,-3.969,-3.97,-3.9694,-3.9703,-3.971,-3.9701,-3.9564,0,0,0,0,0,-3.9079,-3.9139,-3.9201,-3.9275,-3.9301,-3.9344,-3.9381,-3.9397,-3.9451,-3.9472,-3.9514,-3.9566,-3.9628,-3.9667,-3.9726,-3.9818,-3.9833,-3.9856,-3.9864,-3.9869,-3.9877,-3.9929,-3.9941,-3.9817,-3.9817,-3.9817,0,0,-3.9101,-3.915,-3.9186,-3.9276,-3.9318,-3.938,-3.9362,-3.9428,-3.9475,-3.9482,-3.9564,-3.9597,-3.9657,-3.9745,-3.9786,-3.9774,-3.9915,-3.9876,-3.988,-3.9886,-3.9936,-3.9948,-3.9958,-3.9821,-3.982,-3.982,0,0,-3.9175,-3.9218,-3.9285,-3.9327,-3.9391,-3.942,-3.9436,-3.9501,-3.9524,-3.9607,-3.9614,-3.967,-3.9774,-3.9817,-3.9852,-3.9945,-3.9947,-3.9963,-4.0,-4.005,-4.006,-4.0069,-4.0102,-4.0114,-3.9971,-3.9971,-3.9971,0,-3.9195,-3.929,-3.9318,-3.9385,-3.9425,-3.9436,-3.9504,-3.9544,-3.9624,-3.9651,-3.9636,-3.9769,-3.981,-3.9909,-3.9932,-3.996,-3.9979,-3.9955,-4.0056,-4.0066,-4.0074,-4.0106,-4.0119,-3.9972,-3.9972,-3.9972,-3.9972,0,-3.9312,-3.9377,-3.9423,-3.9502,-3.9547,-3.9614,-3.9652,-3.9694,-3.9707,-3.9737,-3.9822,-3.9872,-3.9943,-3.9967,-3.998,-4.0069,-4.0059,-4.005,-4.0024,-4.0087,-4.0118,-4.013,-3.9975,-3.9974,-3.9974,-3.9973,0,0,-3.9389,-3.9483,-3.95,-3.9536,-3.9608,-3.9659,-3.9727,-3.9797,-3.9833,-3.9888,-3.9946,-4.0035,-4.0028,-4.0068,-4.0086,-4.013,-4.0201,-4.0116,-4.0118,-4.013,-4.0303,-4.0309,-4.0323,-4.0203,-4.0205,-4.0207,-4.0298,0,-3.9471,-3.9593,-3.9621,-3.9725,-3.9786,-3.9799,-3.9858,-3.9909,-3.9939,-3.9995,-4.0029,-4.0092,-4.0077,-4.0102,-4.0146,-4.0183,-4.0236,-4.0176,-4.0256,-4.0259,-4.0241,-4.0339,-4.0346,-4.0429,-4.031,-4.0312,-4.0313,0,-3.9583,-3.9642,-3.9753,-3.9818,-3.9845,-3.9898,-3.9965,-4.0019,-4.0077,-4.0096,-4.0142,-4.0155,-4.0227,-4.0197,-4.0295,-4.0254,-4.0289,-4.0312,-4.0316,-4.0324,-4.029,-4.035,-4.0456,-4.0468,-4.0333,-4.0331,-4.033,0,-3.9628,-3.9736,-3.9816,-3.9847,-3.9925,-3.9962,-3.9997,-4.0053,-4.0094,-4.0152,-4.0179,-4.0245,-4.0281,-4.0331,-4.0362,-4.0337,-4.0459,-4.0431,-4.0476,-4.0476,-4.0501,-4.0499,-4.0614,-4.0523,-4.0523,-4.0522,-4.0522,0,-3.9717,-3.9785,-3.9838,-3.9888,-3.9964,-3.9996,-4.007,-4.0105,-4.0155,-4.0211,-4.0226,-4.0278,-4.0316,-4.0374,-4.0398,-4.0477,-4.0492,-4.051,-4.0516,-4.0509,-4.0507,-4.0532,-4.0527,-4.0526,-4.0525,-4.0524,-4.0524,0,-3.9781,-3.982,-3.9908,-3.9976,-3.9995,-4.0048,-4.0106,-4.0155,-4.0186,-4.0257,-4.0276,-4.0325,-4.0394,-4.043,-4.0516,-4.0532,-4.0621,-4.0623,-4.0601,-4.0604,-4.0648,-4.0643,-4.0783,-4.0803,-4.0698,-4.0699,-4.07,0,-3.9835,-3.9888,-3.9962,-4.0001,-4.0037,-4.01,-4.0142,-4.0176,-4.0219,-4.029,-4.033,-4.0401,-4.0458,-4.0568,-4.0611,-4.0677,-4.0681,-4.0725,-4.0691,-4.0683,-4.0682,-4.0679,-4.0685,-4.0731,-4.0732,-4.0733,-4.0734,0,-3.9928,-3.9945,-4.0005,-4.0073,-4.0124,-4.0179,-4.0233,-4.0264,-4.0307,-4.0355,-4.0426,-4.0471,-4.056,-4.063,-4.0699,-4.0734,-4.0742,-4.0745,-4.0759,-4.0752,-4.0738,-4.0747,-4.0618,-4.0741,-4.074,-4.074,-4.0739,-4.0739,-3.9989,-4.0037,-4.0097,-4.0164,-4.0209,-4.026,-4.0309,-4.0348,-4.0408,-4.0484,-4.05,-4.0576,-4.0633,-4.0728,-4.0765,-4.0825,-4.0816,-4.0836,-4.0841,-4.0846,-4.0848,-4.0729,-4.0837,-4.0837,-4.0837,-4.0837,-4.0837,0,-4.0083,-4.0122,-4.0184,-4.026,-4.0314,-4.0317,-4.0378,-4.0422,-4.0489,-4.0543,-4.06,-4.0683,-4.0751,-4.08,-4.0869,-4.0908,-4.0913,-4.0925,-4.0922,-4.093,-4.0852,-4.0833,-4.0919,-4.0919,-4.0919,-4.0919,-4.0919,-4.0919,-4.0138,-4.0219,-4.0243,-4.0347,-4.0386,-4.0462,-4.0496,-4.0543,-4.0587,-4.0679,-4.0736,-4.0768,-4.082,-4.0894,-4.0956,-4.0969,-4.0994,-4.1006,-4.1019,-4.0944,-4.0936,-4.0927,-4.091,-4.1011,-4.1011,-4.1092,-4.1093,-4.1094]}]]